COSMOS 1750

Satellite information

Favourite Embed

Satellite Type and Status

PAYLOADIN ORBIT

Key statistics

Satellite COSMOS 1750 at a glance.

Uptime

14220

Days in orbit

Revolutions

≈ 12.6

Per day

Orbit

LEO

Low Earth Orbit

Inclination

74.0

Latest

Satellite identification and parameters

Extended collection of information and parameters for COSMOS 1750.

Object identification

Identified? True

Debris? False

Object name: COSMOS 1750

International designator: 1986-042C

Object number (NORAD): 16760

Object ID (CCSDS): 16760

Country: COMMONWEALTH OF INDEPENDENT STATES (CIS)

Current information (Y/N): Y

RCS size: MEDIUM

Orbital parameters

Period: 114.635 minutes

Inclination: 74.0171 deg

SMA: 7816.975 km

Apoapsis: 1469.501 km

Periapsis: 1408.178 km

RAAN: 277.5471 deg

Eccentricy: 0.0039224

Argument of periapsis: 109.7488 deg

Mean anomaly: 357.6066 deg

Mean motion: 12.56159237 rev/day

Mean motion (dot): -0.00000023 rev/day2

B* drag term: -0.000042432 1/REarth

Two-line elements (TLE)

Creation date: May 12, 2025, 2:31 a.m.

Reference frame: TEME

Reference center: EARTH

Epoch: May 11, 2025, 7:09 p.m. UTC

TLE line 0: 0 COSMOS 1750

TLE line 1: 1 16760U 86042C 25131.79835977 -.00000023 00000-0 -42432-4 0 9993

TLE line 2: 2 16760 74.0171 277.5471 0039224 109.7488 357.6066 12.56159237785208

Live tracking on map

Real-time ground track for satellite COSMOS 1750.

In-orbit conjunctions

There are no conjunctions computed for COSMOS 1750, at the moment. Check back to stay up to date, as we update our databases every day.

Go to all conjunctions

Associated space launch

Military communications satellites

COSMOS 1750 was lifted into orbit during the mission ‘Kosmos-3M | Strela-1M 305-312’, on board a Kosmos-3M space rocket.

The launch took place on June 6, 1986, 3:57 a.m. from 132/1 (132L).

For more information about the launch, click the button.

Launch to space Kosmos-3M | Strela-1M 305-312
Kosmos-3M | Strela-1M 305-312

Agency: N/A

Status: Launch Successful

Launch date: June 6, 1986, 3:57 a.m. UTC

Rocket: Kosmos-3M

Launch pad: 132/1 (132L)

Location: Plesetsk Cosmodrome, Russian Federation

...

Latest news about this satellite

There are no fresh news available about this satellite. Check back as we update our databases every day.


Newsletter sign-up

Weekly statistics, charts and insights to help you stay on top of the space industry.